Time,TemperatureF,DewpointF,PressureIn,WindDirection,WindDirectionDegrees,WindSpeedMPH,WindSpeedGustMPH,Humidity,HourlyPrecipIn,Conditions,Clouds,dailyrainin,SolarRadiationWatts/m^2,SoftwareType,DateUTC
2013-04-13 00:25:00,47.0,40.0,29.88,NNE,13,2.0,-999.0,78,0.00,,,-99.99,-2.900000,,2013-04-13 07:25:00,
2013-04-13 00:35:00,47.0,40.0,29.88,NNE,13,2.0,-999.0,78,0.00,,,-99.99,-2.900000,,2013-04-13 07:35:00,
2013-04-13 01:35:00,47.0,40.0,29.87,NNE,21,1.0,-999.0,77,0.00,,,-99.99,-1.900000,,2013-04-13 08:35:00,
2013-04-13 02:00:00,51.0,39.0,29.86,NNW,336,4.0,-999.0,64,0.00,,,-99.99,-1.700000,,2013-04-13 09:00:00,
2013-04-13 02:25:00,51.0,39.0,29.86,NNW,336,4.0,-999.0,64,0.00,,,-99.99,-1.700000,,2013-04-13 09:25:00,
2013-04-13 02:38:00,51.0,39.0,29.86,NNW,336,4.0,-999.0,64,0.00,,,-99.99,-1.700000,,2013-04-13 09:38:00,
2013-04-13 02:52:00,51.0,39.0,29.86,NNW,336,4.0,-999.0,64,0.00,,,-99.99,-1.700000,,2013-04-13 09:52:00,
2013-04-13 03:00:00,51.0,39.0,29.84,NNW,344,2.0,-999.0,63,0.00,,,-99.99,-1.900000,,2013-04-13 10:00:00,
2013-04-13 03:25:00,51.0,39.0,29.84,NNW,344,2.0,-999.0,63,0.00,,,-99.99,-1.900000,,2013-04-13 10:25:00,
2013-04-13 03:38:00,51.0,39.0,29.84,NNW,344,2.0,-999.0,63,0.00,,,-99.99,-1.900000,,2013-04-13 10:38:00,
2013-04-13 03:48:00,51.0,39.0,29.84,NNW,344,2.0,-999.0,63,0.00,,,-99.99,-1.900000,,2013-04-13 10:48:00,
2013-04-13 03:54:00,51.0,39.0,29.84,NNW,344,2.0,-999.0,63,0.00,,,-99.99,-1.900000,,2013-04-13 10:54:00,
2013-04-13 04:00:00,50.0,38.0,29.83,North,350,4.0,-999.0,62,0.00,,,-99.99,-2.100000,,2013-04-13 11:00:00,
2013-04-13 04:24:00,50.0,38.0,29.83,North,350,4.0,-999.0,62,0.00,,,-99.99,-2.100000,,2013-04-13 11:24:00,
2013-04-13 04:35:00,50.0,38.0,29.83,North,350,4.0,-999.0,62,0.00,,,-99.99,-2.100000,,2013-04-13 11:35:00,
2013-04-13 04:45:00,50.0,38.0,29.83,North,350,4.0,-999.0,62,0.00,,,-99.99,-2.100000,,2013-04-13 11:45:00,
2013-04-13 04:53:00,50.0,38.0,29.83,North,350,4.0,-999.0,62,0.00,,,-99.99,-2.100000,,2013-04-13 11:53:00,
2013-04-13 05:00:00,51.0,38.0,29.83,North,351,6.0,-999.0,60,0.00,,,-99.99,-1.800000,,2013-04-13 12:00:00,
2013-04-13 05:25:00,51.0,38.0,29.83,North,351,6.0,-999.0,60,0.00,,,-99.99,-1.800000,,2013-04-13 12:25:00,
2013-04-13 05:37:00,51.0,38.0,29.83,North,351,6.0,-999.0,60,0.00,,,-99.99,-1.800000,,2013-04-13 12:37:00,
2013-04-13 05:48:00,51.0,38.0,29.83,North,351,6.0,-999.0,60,0.00,,,-99.99,-1.800000,,2013-04-13 12:48:00,
2013-04-13 05:54:00,51.0,38.0,29.83,North,351,6.0,-999.0,60,0.00,,,-99.99,-1.800000,,2013-04-13 12:54:00,
2013-04-13 06:00:00,51.0,37.0,29.83,North,359,3.0,-999.0,59,0.00,,,-99.99,-2.300000,,2013-04-13 13:00:00,
2013-04-13 06:31:00,51.0,37.0,29.83,North,359,3.0,-999.0,59,0.00,,,-99.99,-2.300000,,2013-04-13 13:31:00,
2013-04-13 06:48:00,51.0,37.0,29.83,North,359,3.0,-999.0,59,0.00,,,-99.99,-2.300000,,2013-04-13 13:48:00,
2013-04-13 06:55:00,51.0,37.0,29.83,North,359,3.0,-999.0,59,0.00,,,-99.99,-2.300000,,2013-04-13 13:55:00,
2013-04-13 07:00:00,48.0,38.0,29.84,NNE,22,3.0,-999.0,66,0.00,,,-99.99,3.500000,,2013-04-13 14:00:00,
2013-04-13 07:24:00,48.0,38.0,29.84,NNE,22,3.0,-999.0,66,0.00,,,-99.99,3.500000,,2013-04-13 14:24:00,
2013-04-13 07:39:00,48.0,38.0,29.84,NNE,22,3.0,-999.0,66,0.00,,,-99.99,3.500000,,2013-04-13 14:39:00,
2013-04-13 07:48:00,48.0,38.0,29.84,NNE,22,3.0,-999.0,66,0.00,,,-99.99,3.500000,,2013-04-13 14:48:00,
2013-04-13 07:57:00,48.0,38.0,29.84,NNE,22,3.0,-999.0,66,0.00,,,-99.99,3.500000,,2013-04-13 14:57:00,
2013-04-13 08:00:00,52.0,38.0,29.86,North,7,4.0,-999.0,59,0.00,,,-99.99,59.500000,,2013-04-13 15:00:00,
2013-04-13 08:29:00,52.0,38.0,29.86,North,7,4.0,-999.0,59,0.00,,,-99.99,59.500000,,2013-04-13 15:29:00,
2013-04-13 08:37:00,52.0,38.0,29.86,North,7,4.0,-999.0,59,0.00,,,-99.99,59.500000,,2013-04-13 15:37:00,
2013-04-13 08:44:00,52.0,38.0,29.86,North,7,4.0,-999.0,59,0.00,,,-99.99,59.500000,,2013-04-13 15:44:00,
2013-04-13 08:56:00,52.0,38.0,29.86,North,7,4.0,-999.0,59,0.00,,,-99.99,59.500000,,2013-04-13 15:56:00,
2013-04-13 09:00:00,57.0,40.0,29.87,NNE,15,4.0,-999.0,53,0.00,,,-99.99,261.500000,,2013-04-13 16:00:00,
2013-04-13 09:25:00,57.0,40.0,29.87,NNE,15,4.0,-999.0,53,0.00,,,-99.99,261.500000,,2013-04-13 16:25:00,
2013-04-13 09:36:00,57.0,40.0,29.87,NNE,15,4.0,-999.0,53,0.00,,,-99.99,261.500000,,2013-04-13 16:36:00,
2013-04-13 09:54:00,57.0,40.0,29.87,NNE,15,4.0,-999.0,53,0.00,,,-99.99,261.500000,,2013-04-13 16:54:00,
2013-04-13 11:00:00,70.0,44.0,29.88,NE,39,2.0,-999.0,39,0.00,,,-99.99,651.000000,,2013-04-13 18:00:00,
2013-04-13 11:25:00,70.0,44.0,29.88,NE,39,2.0,-999.0,39,0.00,,,-99.99,651.000000,,2013-04-13 18:25:00,
2013-04-13 11:33:00,70.0,44.0,29.88,NE,39,2.0,-999.0,39,0.00,,,-99.99,651.000000,,2013-04-13 18:33:00,
2013-04-13 11:42:00,70.0,44.0,29.88,NE,39,2.0,-999.0,39,0.00,,,-99.99,651.000000,,2013-04-13 18:42:00,
2013-04-13 11:53:00,70.0,44.0,29.88,NE,39,2.0,-999.0,39,0.00,,,-99.99,651.000000,,2013-04-13 18:53:00,
2013-04-13 13:00:00,71.0,41.0,29.87,North,3,4.0,-999.0,34,0.00,,,-99.99,847.400024,,2013-04-13 20:00:00,
2013-04-13 13:22:00,71.0,41.0,29.87,North,3,4.0,-999.0,34,0.00,,,-99.99,847.400024,,2013-04-13 20:22:00,
2013-04-13 13:32:00,71.0,41.0,29.87,North,3,4.0,-999.0,34,0.00,,,-99.99,847.400024,,2013-04-13 20:32:00,
2013-04-13 13:42:00,71.0,41.0,29.87,North,3,4.0,-999.0,34,0.00,,,-99.99,847.400024,,2013-04-13 20:42:00,
2013-04-13 13:52:00,71.0,41.0,29.87,North,3,4.0,-999.0,34,0.00,,,-99.99,847.400024,,2013-04-13 20:52:00,
2013-04-13 14:00:00,74.0,40.0,29.84,West,268,3.0,-999.0,29,0.00,,,-99.99,865.000000,,2013-04-13 21:00:00,
2013-04-13 14:22:00,74.0,40.0,29.84,West,268,3.0,-999.0,29,0.00,,,-99.99,865.000000,,2013-04-13 21:22:00,
2013-04-13 14:33:00,74.0,40.0,29.84,West,268,3.0,-999.0,29,0.00,,,-99.99,865.000000,,2013-04-13 21:33:00,
2013-04-13 14:43:00,74.0,40.0,29.84,West,268,3.0,-999.0,29,0.00,,,-99.99,865.000000,,2013-04-13 21:43:00,
2013-04-13 14:53:00,74.0,40.0,29.84,West,268,3.0,-999.0,29,0.00,,,-99.99,865.000000,,2013-04-13 21:53:00,
2013-04-13 15:00:00,74.0,43.0,29.83,North,350,2.0,-999.0,32,0.00,,,-99.99,803.000000,,2013-04-13 22:00:00,
2013-04-13 15:23:00,74.0,43.0,29.83,North,350,2.0,-999.0,32,0.00,,,-99.99,803.000000,,2013-04-13 22:23:00,
2013-04-13 15:33:00,74.0,43.0,29.83,North,350,2.0,-999.0,32,0.00,,,-99.99,803.000000,,2013-04-13 22:33:00,
2013-04-13 15:42:00,74.0,43.0,29.83,North,350,2.0,-999.0,32,0.00,,,-99.99,803.000000,,2013-04-13 22:42:00,
2013-04-13 15:52:00,74.0,43.0,29.83,North,350,2.0,-999.0,32,0.00,,,-99.99,803.000000,,2013-04-13 22:52:00,
2013-04-13 16:00:00,72.0,42.0,29.82,WSW,253,2.0,-999.0,33,0.00,,,-99.99,636.799988,,2013-04-13 23:00:00,
2013-04-13 16:22:00,72.0,42.0,29.82,WSW,253,2.0,-999.0,33,0.00,,,-99.99,636.799988,,2013-04-13 23:22:00,
2013-04-13 16:33:00,72.0,42.0,29.82,WSW,253,2.0,-999.0,33,0.00,,,-99.99,636.799988,,2013-04-13 23:33:00,
2013-04-13 16:42:00,72.0,42.0,29.82,WSW,253,2.0,-999.0,33,0.00,,,-99.99,636.799988,,2013-04-13 23:42:00,
2013-04-13 16:52:00,72.0,42.0,29.82,WSW,253,2.0,-999.0,33,0.00,,,-99.99,636.799988,,2013-04-13 23:52:00,
2013-04-13 17:00:00,71.0,39.0,29.81,West,264,2.0,-999.0,31,0.00,,,-99.99,395.600006,,2013-04-14 00:00:00,
2013-04-13 17:22:00,71.0,39.0,29.81,West,264,2.0,-999.0,31,0.00,,,-99.99,395.600006,,2013-04-14 00:22:00,
2013-04-13 17:32:00,71.0,39.0,29.81,West,264,2.0,-999.0,31,0.00,,,-99.99,395.600006,,2013-04-14 00:32:00,
2013-04-13 17:42:00,71.0,39.0,29.81,West,264,2.0,-999.0,31,0.00,,,-99.99,395.600006,,2013-04-14 00:42:00,
2013-04-13 17:52:00,71.0,39.0,29.81,West,264,2.0,-999.0,31,0.00,,,-99.99,395.600006,,2013-04-14 00:52:00,
2013-04-13 18:00:00,69.0,44.0,29.82,SSW,197,3.0,-999.0,41,0.00,,,-99.99,292.500000,,2013-04-14 01:00:00,
2013-04-13 18:23:00,69.0,44.0,29.82,SSW,197,3.0,-999.0,41,0.00,,,-99.99,292.500000,,2013-04-14 01:23:00,
2013-04-13 18:33:00,69.0,44.0,29.82,SSW,197,3.0,-999.0,41,0.00,,,-99.99,292.500000,,2013-04-14 01:33:00,
2013-04-13 18:42:00,69.0,44.0,29.82,SSW,197,3.0,-999.0,41,0.00,,,-99.99,292.500000,,2013-04-14 01:42:00,
2013-04-13 18:53:00,69.0,44.0,29.82,SSW,197,3.0,-999.0,41,0.00,,,-99.99,292.500000,,2013-04-14 01:53:00,
2013-04-13 19:00:00,65.0,41.0,29.82,NW,311,0.0,-999.0,40,0.00,,,-99.99,119.400002,,2013-04-14 02:00:00,
2013-04-13 19:22:00,65.0,41.0,29.82,NW,311,0.0,-999.0,40,0.00,,,-99.99,119.400002,,2013-04-14 02:22:00,
2013-04-13 19:33:00,65.0,41.0,29.82,NW,311,0.0,-999.0,40,0.00,,,-99.99,119.400002,,2013-04-14 02:33:00,
2013-04-13 19:42:00,65.0,41.0,29.82,NW,311,0.0,-999.0,40,0.00,,,-99.99,119.400002,,2013-04-14 02:42:00,
2013-04-13 19:53:00,65.0,41.0,29.82,NW,311,0.0,-999.0,40,0.00,,,-99.99,119.400002,,2013-04-14 02:53:00,
2013-04-13 20:00:00,57.0,44.0,29.82,South,182,0.0,-999.0,61,0.00,,,-99.99,10.800000,,2013-04-14 03:00:00,
2013-04-13 20:22:00,57.0,44.0,29.82,South,182,0.0,-999.0,61,0.00,,,-99.99,10.800000,,2013-04-14 03:22:00,
2013-04-13 20:33:00,57.0,44.0,29.82,South,182,0.0,-999.0,61,0.00,,,-99.99,10.800000,,2013-04-14 03:33:00,
2013-04-13 20:42:00,57.0,44.0,29.82,South,182,0.0,-999.0,61,0.00,,,-99.99,10.800000,,2013-04-14 03:42:00,
2013-04-13 20:53:00,57.0,44.0,29.82,South,182,0.0,-999.0,61,0.00,,,-99.99,10.800000,,2013-04-14 03:53:00,
2013-04-13 21:00:00,53.0,42.0,29.83,NNW,344,0.0,-999.0,67,0.00,,,-99.99,-3.100000,,2013-04-14 04:00:00,
2013-04-13 21:23:00,53.0,42.0,29.83,NNW,344,0.0,-999.0,67,0.00,,,-99.99,-3.100000,,2013-04-14 04:23:00,
2013-04-13 21:33:00,53.0,42.0,29.83,NNW,344,0.0,-999.0,67,0.00,,,-99.99,-3.100000,,2013-04-14 04:33:00,
2013-04-13 21:43:00,53.0,42.0,29.83,NNW,344,0.0,-999.0,67,0.00,,,-99.99,-3.100000,,2013-04-14 04:43:00,
2013-04-13 21:52:00,53.0,42.0,29.83,NNW,344,0.0,-999.0,67,0.00,,,-99.99,-3.100000,,2013-04-14 04:52:00,
2013-04-13 22:00:00,50.0,42.0,29.84,WSW,251,1.0,-999.0,74,0.00,,,-99.99,-1.500000,,2013-04-14 05:00:00,
2013-04-13 22:23:00,50.0,42.0,29.84,WSW,251,1.0,-999.0,74,0.00,,,-99.99,-1.500000,,2013-04-14 05:23:00,
2013-04-13 22:32:00,50.0,42.0,29.84,WSW,251,1.0,-999.0,74,0.00,,,-99.99,-1.500000,,2013-04-14 05:32:00,
2013-04-13 22:42:00,50.0,42.0,29.84,WSW,251,1.0,-999.0,74,0.00,,,-99.99,-1.500000,,2013-04-14 05:42:00,
2013-04-13 22:52:00,50.0,42.0,29.84,WSW,251,1.0,-999.0,74,0.00,,,-99.99,-1.500000,,2013-04-14 05:52:00,
2013-04-13 23:00:00,48.0,42.0,29.84,SSW,198,0.0,-999.0,80,0.00,,,-99.99,-1.700000,,2013-04-14 06:00:00,
2013-04-13 23:22:00,48.0,42.0,29.84,SSW,198,0.0,-999.0,80,0.00,,,-99.99,-1.700000,,2013-04-14 06:22:00,
2013-04-13 23:32:00,48.0,42.0,29.84,SSW,198,0.0,-999.0,80,0.00,,,-99.99,-1.700000,,2013-04-14 06:32:00,